MET'MAP v2.0
soon released !

Expected late october,
this new version will be
more efficient, smarter,
and hosted on a brand new
server x3 powerfull...
...and still free !


Not compatible ?
Try the mobile version !

LOG IN : | Subscribe | Disclaimer | Who is Orbifly ? |
ICAO code :

TAF - LFOF Alençon Valframbert - 03 Apr 2020 18:57 UTC
Data Sources :     NOAA   


- Airport Elevation : 479 ft
- IATA code : XAN
- No reported NOTAMs.


LFOF - Alençon Valframbert

Latest METAR recorded : 0000/00/00 T :16 TAF EBDT 161541Z 1619/1707 30006KT 9999 SCT030 SCT060 BKN110 PROB30 TEMPO 1619/1622 -RA BKN050 BECMG 1623/1702 SCT075 BECMG 1703/1705 23004KT MIFG SCT170
NO TAF


MET'MAP, your aeronautical weather chart ! - Copyright ORBIFLY December 2007

Programming & Development : Alexandra Zaïnal
Co-Developer : Marc-Olivier Méhu
Technical & hardware support : Manuel Goepfert
Concept & Financing : Baudouin d'Aumeries